Lid_Strength_Index
3 2 2 3 5 6 8 7 9 5 3 8 10 11 9 8 8 7 8 8 8 9 8 9 10 10 10 7 8 10 11 13 15 12 10 10 11 13 13 14 15 15 15 15
3 2 2 4 5 7 10 7 6 5 4 10 11 9 8 8 8 8 7 8 8 7 9 10 9 9 8 7 9 11 10 14 16 14 14 11 13 13 14 14 14 16 17 15
3 2 3 3 6 7 9 7 9 8 7 8 9 11 10 9 6 7 7 8 8 9 10 10 11 10 8 8 9 4 8 13 14 15 14 13 13 12 13 15 17 17 15 15
3 2 3 3 6 7 7 8 9 8 10 9 10 10 10 9 9 7 7 8 8 10 12 12 12 10 10 9 5 9 11 14 11 12 10 11 12 11 11 14 14 16 13 14
3 3 3 3 4 7 7 11 10 9 9 7 9 11 10 8 8 8 9 9 8 9 11 12 13 12 13 12 10 11 11 12 12 12 9 9 10 9 9 10 10 12 11 12
3 3 3 3 4 5 7 8 8 9 9 9 10 9 8 8 7 7 7 7 9 9 9 9 10 10 10 12 12 12 12 12 14 14 11 11 13 10 10 10 10 10 13 11
3 3 3 3 3 4 8 8 8 9 10 9 9 8 7 7 8 8 8 7 9 8 9 9 9 10 11 11 11 11 12 12 13 14 13 17 12 9 8 9 9 8 8 8
4 3 3 3 4 4 7 6 5 8 11 8 8 8 8 9 9 8 8 7 8 9 10 11 13 12 11 10 10 11 11 12 13 14 15 12 10 9 10 11 11 8 8 7
3 3 3 3 3 4 7 6 4 6 9 10 7 8 9 10 11 10 9 8 9 8 11 12 14 15 12 12 11 11 10 11 12 14 16 16 12 7 7 9 13 7 7 8
3 3 2 3 3 4 6 7 5 6 8 7 8 10 10 8 9 10 9 7 8 9 12 13 14 13 10 12 13 13 12 12 13 14 14 13 9 7 7 14 13 7 6 7
4 3 3 2 3 3 5 6 5 6 9 8 6 5 8 8 8 10 8 8 8 10 11 12 12 12 11 12 11 12 13 13 14 14 15 16 7 7 12 9 8 7 6 7
4 4 3 3 2 3 4 7 5 4 6 7 5 4 4 5 6 8 9 9 9 9 10 10 10 11 11 13 14 11 13 12 12 12 12 8 7 7 7 6 7 7 7 6
5 5 4 3 3 3 4 7 6 5 7 7 7 6 4 6 6 6 9 8 7 8 8 10 11 12 11 14 12 12 10 9 11 10 9 8 6 6 6 6 7 6 5 5
6 6 5 3 3 4 3 7 6 6 7 9 7 4 6 5 5 5 6 7 8 8 8 10 10 10 9 11 9 10 9 9 10 10 9 7 6 6 6 5 5 5 4 4
7 6 5 5 3 4 5 6 5 5 7 9 8 6 5 5 5 5 6 7 8 8 8 10 10 9 9 9 9 10 8 9 11 12 8 8 7 5 4 5 5 5 5 5
7 6 6 5 4 4 6 6 6 5 6 8 10 6 7 6 6 6 5 7 8 8 8 9 8 7 8 11 12 8 7 7 7 8 6 6 5 5 4 5 5 4 5 4
6 6 5 5 5 7 8 7 6 6 6 6 9 9 7 6 7 7 7 7 7 8 9 9 9 8 8 10 12 8 7 6 6 6 6 7 6 6 4 4 4 4 4 4
6 6 5 5 5 6 8 6 5 6 7 6 10 9 9 7 9 9 7 9 8 8 9 9 9 9 9 11 8 7 6 6 6 6 5 6 6 5 5 4 4 5 5 4
6 6 5 6 8 8 5 3 5 6 6 8 9 11 11 7 8 7 7 8 10 8 10 10 9 10 11 9 8 7 6 7 7 5 6 5 6 5 5 5 5 5 5 5
6 7 7 8 5 3 3 6 8 8 7 7 9 9 11 8 9 9 9 9 11 11 10 8 10 11 8 6 6 6 5 6 5 7 7 7 7 6 5 5 5 4 5 4
8 8 8 6 3 7 7 9 9 8 10 9 9 10 11 8 9 9 8 10 11 12 10 10 11 12 9 6 6 5 5 5 5 5 5 5 6 5 5 5 4 4 4 5
8 8 7 7 7 9 10 10 9 9 10 8 9 9 9 7 7 8 9 11 11 13 9 11 13 10 7 6 6 5 5 4 4 4 5 4 4 5 5 5 5 6 6 6
7 8 9 8 9 14 11 13 11 11 9 7 8 9 7 7 7 8 9 11 12 9 12 12 11 8 7 6 5 5 4 4 4 4 4 4 5 5 5 6 6 6 7 6
9 9 14 11 12 10 11 11 10 8 7 7 8 9 9 8 9 9 11 10 10 12 14 14 10 8 7 6 5 5 5 5 5 5 5 5 5 5 4 4 6 7 8 7
8 8 14 11 10 9 8 8 8 5 5 6 7 7 7 9 10 10 11 12 12 12 12 10 8 6 6 6 6 5 5 5 6 5 5 5 4 5 5 5 5 6 5 5
9 10 11 9 10 10 9 8 7 6 6 5 6 8 9 10 9 11 12 12 13 11 9 7 6 6 6 6 5 5 4 5 6 6 6 5 5 6 6 6 6 7 6 6
10 10 9 10 9 10 10 8 7 6 8 9 8 10 10 10 12 12 10 12 10 8 7 6 6 6 5 5 5 4 5 5 6 6 5 6 5 5 7 8 8 8 6 6